Visibility
15.0 15.0 15.0 15.0 15.0 9.2 15.0 15.0 15.0 15.0 15.0 15.0 12.2 10.5 10.3 15.0 4.9 15.0 5.3 14.9 13.6 14.3 15.0 15.0 11.1 6.1 3.8 15.0 15.0 12.8 14.5 7.2 1.3 1.3 8.9 2.4 4.7 4.8 4.4 4.4 4.2 4.7 4.3
15.0 15.0 15.0 15.0 15.0 8.4 14.8 15.0 10.0 15.0 15.0 15.0 15.0 15.0 15.0 14.6 8.8 15.0 14.4 15.0 14.4 15.0 4.1 14.7 15.0 6.1 15.0 15.0 9.0 8.1 15.0 11.9 15.0 0.1 0.1 0.7 3.3 3.5 3.8 0.2 0.2 4.1 5.5
15.0 15.0 15.0 15.0 15.0 15.0 15.0 13.4 15.0 15.0 15.0 15.0 15.0 15.0 15.0 7.1 15.0 15.0 15.0 15.0 15.0 15.0 15.0 5.5 13.9 13.2 15.0 15.0 12.6 13.4 15.0 11.1 7.2 7.8 0.1 6.8 0.6 3.1 0.3 4.3 5.6 7.6 6.4
15.0 15.0 15.0 15.0 11.3 15.0 15.0 9.8 8.0 15.0 15.0 15.0 12.2 15.0 15.0 15.0 15.0 15.0 15.0 15.0 13.7 15.0 15.0 4.3 9.1 7.9 15.0 12.5 6.7 14.8 15.0 9.3 6.6 7.8 5.3 4.7 1.8 0.6 6.7 0.5 0.3 6.7 9.8
15.0 15.0 15.0 15.0 15.0 15.0 12.2 15.0 15.0 15.0 15.0 15.0 15.0 15.0 15.0 15.0 15.0 15.0 15.0 15.0 4.6 9.5 11.5 13.8 10.9 15.0 15.0 5.6 3.8 7.3 9.2 13.6 6.7 7.8 6.3 0.8 0.1 0.6 5.1 4.7 11.7 13.8 15.0
15.0 15.0 15.0 15.0 15.0 15.0 11.0 14.5 5.5 15.0 13.8 15.0 15.0 15.0 15.0 15.0 5.2 15.0 15.0 15.0 4.5 7.7 4.5 15.0 15.0 11.1 0.1 3.8 5.0 13.8 14.8 15.0 13.0 15.0 15.0 0.4 4.6 6.7 9.3 10.9 15.0 15.0 15.0
15.0 15.0 15.0 15.0 15.0 15.0 15.0 5.3 14.0 12.0 8.2 7.4 8.3 15.0 15.0 15.0 15.0 15.0 15.0 15.0 7.3 6.0 5.4 5.5 15.0 15.0 15.0 12.8 2.1 0.2 0.1 12.0 13.9 15.0 15.0 9.0 15.0 14.0 15.0 15.0 15.0 15.0 15.0
15.0 15.0 15.0 15.0 15.0 15.0 15.0 8.6 8.8 6.4 6.5 15.0 15.0 15.0 15.0 14.0 15.0 10.2 0.5 4.4 11.1 7.7 10.0 13.3 15.0 15.0 6.9 13.5 15.0 7.9 14.9 10.2 10.0 7.6 13.5 10.4 8.6 14.5 15.0 15.0 12.9 15.0 15.0
15.0 15.0 15.0 15.0 15.0 15.0 14.2 5.4 15.0 4.6 6.1 15.0 15.0 15.0 15.0 14.8 0.0 0.0 0.0 12.5 7.5 5.2 5.4 14.7 14.3 14.2 0.1 15.0 15.0 0.4 0.1 0.1 0.1 0.1 0.1 0.0 0.2 15.0 15.0 15.0 15.0 15.0 15.0
15.0 15.0 15.0 15.0 15.0 15.0 15.0 15.0 14.0 14.2 15.0 15.0 6.5 15.0 3.1 15.0 0.0 0.0 0.0 5.5 6.0 7.9 14.4 15.0 0.3 13.8 2.4 15.0 15.0 15.0 0.2 0.1 1.5 0.3 0.1 0.2 1.5 2.5 15.0 6.0 15.0 15.0 15.0
15.0 15.0 15.0 15.0 15.0 15.0 15.0 6.1 5.1 10.8 15.0 15.0 15.0 15.0 15.0 15.0 0.2 0.0 0.0 5.0 6.1 4.6 15.0 15.0 15.0 1.4 15.0 7.6 12.7 15.0 9.4 15.0 5.4 15.0 15.0 15.0 14.1 15.0 15.0 15.0 14.0 15.0 9.7
15.0 15.0 15.0 15.0 15.0 15.0 15.0 15.0 10.0 8.1 15.0 15.0 14.8 15.0 15.0 15.0 2.1 0.0 0.0 7.1 15.0 6.8 15.0 15.0 8.1 0.8 15.0 15.0 15.0 12.0 15.0 15.0 15.0 9.2 11.7 15.0 15.0 15.0 15.0 12.2 15.0 15.0 15.0
15.0 15.0 15.0 15.0 15.0 15.0 15.0 15.0 15.0 15.0 15.0 14.2 9.8 9.8 14.4 14.4 14.5 0.0 0.0 0.0 0.1 7.2 15.0 1.3 0.0 0.3 15.0 14.7 15.0 15.0 2.6 15.0 15.0 15.0 15.0 15.0 15.0 15.0 15.0 15.0 15.0 15.0 15.0
15.0 15.0 15.0 15.0 15.0 15.0 15.0 15.0 15.0 15.0 15.0 15.0 15.0 12.3 8.8 15.0 15.0 15.0 15.0 13.4 1.2 15.0 2.4 2.1 12.6 0.1 12.6 9.3 1.8 2.5 15.0 15.0 15.0 15.0 15.0 15.0 15.0 15.0 15.0 15.0 15.0 15.0 15.0
15.0 15.0 15.0 15.0 15.0 15.0 15.0 15.0 15.0 12.8 15.0 15.0 15.0 15.0 15.0 15.0 15.0 15.0 15.0 15.0 15.0 12.5 15.0 15.0 15.0 15.0 15.0 15.0 15.0 15.0 15.0 15.0 15.0 15.0 15.0 15.0 15.0 15.0 15.0 15.0 15.0 15.0 15.0
15.0 15.0 15.0 15.0 15.0 15.0 15.0 15.0 0.1 15.0 15.0 15.0 15.0 15.0 15.0 15.0 15.0 15.0 15.0 15.0 15.0 15.0 15.0 15.0 15.0 15.0 15.0 15.0 15.0 15.0 15.0 15.0 15.0 15.0 15.0 15.0 15.0 15.0 15.0 15.0 15.0 15.0 15.0
15.0 15.0 15.0 15.0 15.0 15.0 15.0 15.0 15.0 0.1 11.1 15.0 15.0 15.0 15.0 15.0 15.0 15.0 15.0 15.0 15.0 0.3 15.0 15.0 15.0 15.0 15.0 15.0 15.0 15.0 15.0 15.0 15.0 15.0 15.0 15.0 15.0 15.0 15.0 15.0 15.0 15.0 15.0
15.0 15.0 15.0 15.0 15.0 15.0 15.0 15.0 15.0 15.0 15.0 15.0 0.1 8.2 0.2 15.0 15.0 15.0 15.0 4.5 10.4 7.4 15.0 15.0 15.0 15.0 15.0 15.0 15.0 15.0 15.0 15.0 15.0 15.0 15.0 15.0 15.0 15.0 15.0 15.0 15.0 15.0 15.0
15.0 15.0 15.0 15.0 15.0 15.0 15.0 15.0 15.0 15.0 15.0 15.0 15.0 0.4 6.1 9.1 12.8 13.1 8.6 15.0 15.0 15.0 15.0 15.0 15.0 15.0 15.0 15.0 15.0 15.0 15.0 15.0 15.0 15.0 15.0 15.0 15.0 15.0 15.0 15.0 15.0 15.0 15.0
15.0 15.0 15.0 15.0 15.0 15.0 15.0 15.0 15.0 15.0 15.0 15.0 15.0 15.0 15.0 15.0 15.0 15.0 15.0 15.0 15.0 15.0 15.0 15.0 15.0 15.0 15.0 15.0 15.0 15.0 15.0 15.0 15.0 15.0 15.0 15.0 15.0 15.0 15.0 15.0 15.0 15.0 15.0
15.0 15.0 15.0 15.0 15.0 15.0 15.0 15.0 15.0 15.0 15.0 15.0 15.0 15.0 15.0 15.0 15.0 15.0 15.0 15.0 15.0 15.0 15.0 15.0 15.0 15.0 15.0 15.0 15.0 15.0 15.0 15.0 15.0 15.0 15.0 15.0 15.0 15.0 15.0 15.0 15.0 15.0 15.0
15.0 15.0 15.0 15.0 15.0 15.0 15.0 15.0 15.0 15.0 15.0 15.0 15.0 15.0 15.0 15.0 15.0 15.0 15.0 15.0 15.0 15.0 15.0 15.0 15.0 15.0 15.0 15.0 15.0 15.0 15.0 15.0 15.0 15.0 15.0 15.0 15.0 15.0 15.0 15.0 15.0 15.0 15.0
15.0 15.0 15.0 15.0 15.0 15.0 15.0 15.0 15.0 15.0 15.0 15.0 15.0 15.0 15.0 15.0 15.0 15.0 15.0 15.0 15.0 15.0 15.0 15.0 15.0 15.0 15.0 15.0 15.0 15.0 15.0 15.0 15.0 15.0 15.0 15.0 15.0 15.0 15.0 15.0 15.0 15.0 15.0
15.0 15.0 15.0 15.0 15.0 15.0 15.0 15.0 15.0 15.0 15.0 15.0 15.0 15.0 15.0 15.0 15.0 15.0 15.0 15.0 15.0 15.0 15.0 15.0 15.0 15.0 15.0 15.0 15.0 15.0 15.0 15.0 15.0 15.0 15.0 15.0 15.0 15.0 15.0 15.0 15.0 15.0 15.0
15.0 15.0 15.0 15.0 15.0 15.0 15.0 15.0 15.0 15.0 15.0 15.0 15.0 15.0 15.0 15.0 15.0 15.0 15.0 15.0 15.0 15.0 15.0 15.0 15.0 15.0 15.0 15.0 15.0 15.0 15.0 15.0 15.0 15.0 15.0 15.0 15.0 15.0 15.0 15.0 15.0 15.0 15.0
15.0 15.0 15.0 15.0 15.0 15.0 15.0 15.0 15.0 15.0 15.0 15.0 15.0 15.0 15.0 15.0 15.0 15.0 15.0 15.0 15.0 15.0 15.0 15.0 15.0 15.0 15.0 15.0 15.0 15.0 15.0 15.0 15.0 15.0 15.0 15.0 15.0 15.0 15.0 15.0 15.0 15.0 15.0